Showing default

NORBI, 46494

Orbit data source: Space-Track

NORBI, 46494 is a payload satellite owned by Novosibirsk SU (CIS) in SSO that was launched on Mon, 28 Sep 2020 UTC via a SOYUZ-2-1B launch vehicle from the Plesetsk Missile And Space Complex (PKMTR). Payload-class satellites include a variety of spacecraft equipped with specific instruments for various scientific and technological missions. These include communications satellites like Starlink; space stations such as the ISS; scientific satellites like the Hubble; Earth observation satellites from companies like Planet Labs, Umbra, and HawkEye 360; GPS; miniature CubeSats for education and research; and military/defense satellites.

Loading next visibility...
Identifier
46494, 2020-068J
Orbit
SSO
Country
Flag of CISCIS
Related business
Manufacturer
Novosibirsk SU
Mission
Operational Amateur Science
Bus & Motor
CUBESAT 6U, Unknown motor
Mass
~10 kg wet, ~10 kg dry
Launch date (UTC)
2020-09-28 (5 years ago)
Launch vehicle
SOYUZ-2-1B
Launch site
Plesetsk Missile And Space Complex (PKMTR)
Object type
Payload
Rocket body
Debris
Shape & HBR
Box + 2 Pan, Unknown HBR
Radar Cross Section
0.035 m², Small (<0.1 m²)

Expand to show TLE details & history
Last TLE update: 11 hours ago

TLE from 11 hours ago
0 NORBI
1 46494U 20068J   26071.99935824  .00027563  00000-0  60064-3 0  9990
2 46494  97.8697  79.7786 0005289 232.4886 127.5881 15.44224666301349
Epoch: 2026-03-12T23:59Z
TLE epoch observation values (Epoch: 2026-03-12T23:59:04.551Z)
Latitude
-0.00001°
Longitude
-90.63155°
Altitude
438.966 km
Speed
7.647 km/s
True Right ascension
05h 19m 06s
True Declination
0° 00' 00"
Sunlit
Object was in daylight at epoch
Visualization orbit readout
Latitude
Unknown
Longitude
Unknown
Altitude
Unknown
Speed
Unknown
Apparent Right ascension
Unknown
Apparent Declination
Unknown
Sunlit
N/A
Visualization observer readout
Local Sidereal Time
15:23:32
Azimuth
Unknown
Elevation
Unknown
Doppler factor
Unknown
Orbital elements
Apogee altitude
434.213 km
Perigee altitude
427.01 km
Semi-major axis
6,808.748 km
Eccentricity
0.00053
Inclination
97.8697°
RAAN
79.7786°
Arg. of periapsis
232.4886°
True anomaly
127.63611°
Mean anomaly
127.5881°
Eccentric anomaly
127.61211°
Mean motion
3.86316 °/min
Orbital period
93.19 mins
BSTAR
0.00060064
Loading maneuver chart data...
Computing Atmospheric mass density...
Loading historical data...
Loading historical data...
Loading historical data...
Loading historical data...
Loading historical data...
Loading historical data...
Loading historical data...

Documentation

Showing up to 5 results
|